(150233) = 1998 XM8 = 2003 AC19

Discovered at Kitt Peak on 1998-12-10 by Spacewatch.

Orbit

Orbit type: Main Belt

Note: WebGL enabled browser required.

epoch2023-09-13.0
epoch JD2460200.5
perihelion date2021-09-09.14839
perihelion JD2459466.64839
argument of perihelion (°)285.79446
ascending node (°)198.67853
inclination (°)1.89893
eccentricity0.1440415
perihelion distance (AU)2.0511099
Tisserand w.r.t. Jupiter3.5
ΔV w.r.t. Earth (km/sec)8.9
semimajor axis (AU)2.3962725
mean anomaly (°)194.98796
mean daily motion (°/day)0.26570490
aphelion distance (AU)2.741
period (years)3.71
P-vector [x]-0.56584847
P-vector [y]0.76858988
P-vector [z]0.29847127
Q-vector [x]-0.82444095
Q-vector [y]-0.52276886
Q-vector [z]-0.21681750
absolute magnitude16.69
phase slope0.15
uncertainty0
referenceMPEC 2023-W66
observations used648
oppositions16
arc length (days)10043
first opposition used1996
last opposition used2023
residual rms (arc-secs)0.74
perturbers coarse indicatorM-v
perturbers precise indicator003Ek
first observation date used1996-03-16.0
last observation date used2023-09-14.0
computer nameMPCLINUX
JD of orbit computation2456731.617263
perihelion JD uncertainty (days)7.0955E-05
argument of perihelion uncertainty (°)8.9735E-05
ascending node uncertainty (°)8.7821E-05
inclination uncertainty (°)5.1806E-06
eccentricity uncertainty 3.3308E-08
perihelion distance uncertainty (AU)7.7239E-08
Minimum Orbit Intersection Distances (in AU)
for orbit epoch: 2460200.5, reference: E2023-W66
Mercury1.7222
Venus1.33577
Earth1.06617
Mars0.41629
Jupiter2.32082
Saturn6.88344
Uranus16.287
Neptune27.3102

Observations

668 total observations over interval: 1996 03 16.42479 – 2023 09 14.289284
These data are available for download (format description).

Date (UT) J2000 RA J2000 Dec Magn Location Ref
1996 03 16.42479 13 05 18.52 -07 37 50.9   691 – Steward Observatory, Kitt Peak-Spacewatch MPS 82595
1996 03 16.44676 13 05 17.51 -07 37 43.6 19.9 V 691 – Steward Observatory, Kitt Peak-Spacewatch MPS 82595
1996 03 16.46774 13 05 16.54 -07 37 36.4   691 – Steward Observatory, Kitt Peak-Spacewatch MPS 82595
1998 12 10.14512 03 41 07.14 +17 05 33.8 19.5 V 691 – Steward Observatory, Kitt Peak-Spacewatch MPS 3386
1998 12 10.16764 03 41 05.93 +17 05 29.6 19.6 V 691 – Steward Observatory, Kitt Peak-Spacewatch MPS 3386
1998 12 10.18937 03 41 04.77 +17 05 25.0 20.0 V 691 – Steward Observatory, Kitt Peak-Spacewatch MPS 3386
1998 12 13.26475 03 38 32.81 +16 56 08.7 19.3 V 691 – Steward Observatory, Kitt Peak-Spacewatch MPS 3386
1998 12 13.29887 03 38 31.14 +16 56 02.7 19.4 V 691 – Steward Observatory, Kitt Peak-Spacewatch MPS 3386
1998 12 13.32105 03 38 30.01 +16 55 58.5 19.2 V 691 – Steward Observatory, Kitt Peak-Spacewatch MPS 3386
1998 12 22.07578 03 32 46.03 +16 35 34.4 20.9 V 691 – Steward Observatory, Kitt Peak-Spacewatch MPS 79528
1998 12 22.09745 03 32 45.33 +16 35 32.6 20.6 V 691 – Steward Observatory, Kitt Peak-Spacewatch MPS 79528
1998 12 22.11912 03 32 44.62 +16 35 30.4 20.5 V 691 – Steward Observatory, Kitt Peak-Spacewatch MPS 79528
1998 12 22.85670 03 32 22.16 +16 34 14.9 19.8 V 910 – Caussols-ODAS MPS 34062
1998 12 22.88052 03 32 21.41 +16 34 13.1 20.0 V 910 – Caussols-ODAS MPS 34062
1998 12 22.90343 03 32 20.69 +16 34 10.6 20.4 V 910 – Caussols-ODAS MPS 34062
2001 08 23.32115 22 20 20.10 -07 59 18.2 20.6 V 691 – Steward Observatory, Kitt Peak-Spacewatch MPS 82595
2001 08 23.34289 22 20 18.84 -07 59 25.7 20.7 V 691 – Steward Observatory, Kitt Peak-Spacewatch MPS 82595
2001 08 23.36383 22 20 17.66 -07 59 32.5 20.6 V 691 – Steward Observatory, Kitt Peak-Spacewatch MPS 82595
2003 01 04.30550 07 48 12.36 +17 28 35.5 18.8   704 – Lincoln Laboratory ETS, New Mexico MPS 70224
2003 01 04.31967 07 48 11.52 +17 28 37.0 18.7   704 – Lincoln Laboratory ETS, New Mexico MPS 70224
2003 01 04.34827 07 48 09.76 +17 28 40.6 18.9   704 – Lincoln Laboratory ETS, New Mexico MPS 70224
2003 01 04.36253 07 48 08.92 +17 28 42.5 19.1   704 – Lincoln Laboratory ETS, New Mexico MPS 70224
2003 01 07.30779 07 45 17.58 +17 34 53.8 18.5   704 – Lincoln Laboratory ETS, New Mexico MPS 70224
2003 01 07.32579 07 45 16.45 +17 34 57.1 19.1   704 – Lincoln Laboratory ETS, New Mexico MPS 70224
2003 01 07.34074 07 45 15.45 +17 34 59.5 19.2   704 – Lincoln Laboratory ETS, New Mexico MPS 70224
2003 01 07.35824 07 45 14.41 +17 35 00.9 18.8   704 – Lincoln Laboratory ETS, New Mexico MPS 70224
2003 01 07.37327 07 45 13.48 +17 35 03.2 18.9   704 – Lincoln Laboratory ETS, New Mexico MPS 70224
2003 01 08.31828 07 44 17.21 +17 37 10.7 18.5   704 – Lincoln Laboratory ETS, New Mexico MPS 70224
2003 01 08.33297 07 44 16.29 +17 37 12.5 18.7   704 – Lincoln Laboratory ETS, New Mexico MPS 70224
2003 01 08.34769 07 44 15.36 +17 37 14.4 18.8   704 – Lincoln Laboratory ETS, New Mexico MPS 70224
2003 01 08.36231 07 44 14.44 +17 37 16.6 18.5   704 – Lincoln Laboratory ETS, New Mexico MPS 70224
2003 01 08.37696 07 44 13.53 +17 37 18.4 19.1   704 – Lincoln Laboratory ETS, New Mexico MPS 70224
2003 01 24.29524 07 28 09.12 +18 18 14.7 18.5   644 – Palomar Mountain/NEAT MPS 71756
2003 01 24.36628 07 28 04.90 +18 18 25.7 18.8   644 – Palomar Mountain/NEAT MPS 71756
2003 01 24.43224 07 28 01.02 +18 18 35.9 19.4   644 – Palomar Mountain/NEAT MPS 71756
2003 01 27.23730 07 25 27.06 +18 26 05.0 19.2   704 – Lincoln Laboratory ETS, New Mexico MPS 71756
2003 01 27.25262 07 25 26.20 +18 26 07.6 19.7   704 – Lincoln Laboratory ETS, New Mexico MPS 71756
2003 01 27.26804 07 25 25.34 +18 26 10.5 19.4   704 – Lincoln Laboratory ETS, New Mexico MPS 71756
2003 01 27.28342 07 25 24.48 +18 26 13.3 19.3   704 – Lincoln Laboratory ETS, New Mexico MPS 71756
2003 01 27.29875 07 25 23.62 +18 26 14.8 19.9   704 – Lincoln Laboratory ETS, New Mexico MPS 71756
2003 01 30.42085 07 22 44.14 +18 34 29.8 19.9   608 – Haleakala-AMOS MPS 71756
2003 01 30.43151 07 22 43.60 +18 34 31.4 19.9   608 – Haleakala-AMOS MPS 71756
2003 01 30.44286 07 22 42.99 +18 34 33.5 20.6   608 – Haleakala-AMOS MPS 71756
2003 01 31.26060 07 22 03.78 +18 36 37.3 19.1   704 – Lincoln Laboratory ETS, New Mexico MPS 71756
2003 01 31.27473 07 22 03.07 +18 36 39.1 19.6   704 – Lincoln Laboratory ETS, New Mexico MPS 71756
2003 01 31.28887 07 22 02.37 +18 36 41.1 19.4   704 – Lincoln Laboratory ETS, New Mexico MPS 71756
2003 01 31.30299 07 22 01.62 +18 36 43.3 19.8   704 – Lincoln Laboratory ETS, New Mexico MPS 71756
2003 01 31.31711 07 22 00.93 +18 36 45.2 19.2   704 – Lincoln Laboratory ETS, New Mexico MPS 71756
2003 02 03.21602 07 19 50.92 +18 44 05.9 19.2   704 – Lincoln Laboratory ETS, New Mexico MPS 71756
2003 02 03.23168 07 19 50.22 +18 44 08.1 19.5   704 – Lincoln Laboratory ETS, New Mexico MPS 71756
2003 02 03.24719 07 19 49.53 +18 44 10.8 19.5   704 – Lincoln Laboratory ETS, New Mexico MPS 71756
2003 02 03.26280 07 19 48.78 +18 44 12.2 19.3   704 – Lincoln Laboratory ETS, New Mexico MPS 71756
2003 02 03.27833 07 19 48.08 +18 44 15.5 19.5   704 – Lincoln Laboratory ETS, New Mexico MPS 71756
2005 08 31.43057 00 30 38.36 +04 30 07.4 20.6 V 691 – Steward Observatory, Kitt Peak-Spacewatch MPS 139996
2005 08 31.44792 00 30 37.73 +04 30 02.9 20.6 V 691 – Steward Observatory, Kitt Peak-Spacewatch MPS 139996
2005 08 31.46526 00 30 37.12 +04 29 58.9 20.6 V 691 – Steward Observatory, Kitt Peak-Spacewatch MPS 139996
2005 09 14.43373 00 20 48.08 +03 19 26.1 21.3 V 691 – Steward Observatory, Kitt Peak-Spacewatch MPS 141556
2005 09 14.45125 00 20 47.20 +03 19 18.8 20.0 V 691 – Steward Observatory, Kitt Peak-Spacewatch MPS 141556
2005 09 14.46869 00 20 46.30 +03 19 12.4 20.0 V 691 – Steward Observatory, Kitt Peak-Spacewatch MPS 141556
2005 09 25.29111 00 11 19.03 +02 10 14.4 19.9 V 703 – Catalina Sky Survey MPS 142434
2005 09 25.29699 00 11 18.70 +02 10 11.3 19.9 V 703 – Catalina Sky Survey MPS 142434
2005 09 25.30289 00 11 18.42 +02 10 09.0 19.9 V 703 – Catalina Sky Survey MPS 142434
2005 09 25.30880 00 11 18.06 +02 10 09.0 19.7 V 703 – Catalina Sky Survey MPS 142434
2005 10 05.30098 00 02 18.99 +01 03 16.3 19.2 V G96 – Mt. Lemmon Survey MPS 143276
2005 10 05.30652 00 02 18.67 +01 03 14.1 19.3 V G96 – Mt. Lemmon Survey MPS 143276
2005 10 05.31201 00 02 18.38 +01 03 12.0 19.2 V G96 – Mt. Lemmon Survey MPS 143276
2005 10 05.31753 00 02 18.06 +01 03 09.7 19.0 V G96 – Mt. Lemmon Survey MPS 143276
2005 10 11.293887 23 57 17.963 +00 25 10.01 20.34 V 645 – Apache Point-Sloan Digital Sky Survey MPS 390029
2005 10 11.297359 23 57 17.790 +00 25 08.69 21.31   645 – Apache Point-Sloan Digital Sky Survey MPS 390029
2005 10 13.240427 23 55 46.857 +00 13 28.16 20.58 V 645 – Apache Point-Sloan Digital Sky Survey MPS 390029
2005 10 13.243899 23 55 46.689 +00 13 27.01 22.10   645 – Apache Point-Sloan Digital Sky Survey MPS 390029
2005 10 20.250347 23 50 53.140 -00 24 57.24 20.30 V 645 – Apache Point-Sloan Digital Sky Survey MPS 390029
2005 10 20.253819 23 50 53.006 -00 24 58.31 21.14   645 – Apache Point-Sloan Digital Sky Survey MPS 390029
2005 10 23.227047 23 49 07.392 -00 39 12.99 20.52 V 645 – Apache Point-Sloan Digital Sky Survey MPS 390029
2005 10 23.230519 23 49 07.271 -00 39 13.90 21.42   645 – Apache Point-Sloan Digital Sky Survey MPS 390029
2005 10 25.20721 23 48 03.99 -00 47 56.3 20.3 V G96 – Mt. Lemmon Survey MPS 145769
2005 10 25.21429 23 48 03.78 -00 47 58.0 20.2 V G96 – Mt. Lemmon Survey MPS 145769
2005 10 25.22135 23 48 03.52 -00 48 00.0 20.7 V G96 – Mt. Lemmon Survey MPS 145769
2005 10 25.22844 23 48 03.27 -00 48 01.3 20.6 V G96 – Mt. Lemmon Survey MPS 145769
2005 10 27.242167 23 47 04.866 -00 56 13.91 20.62 V 645 – Apache Point-Sloan Digital Sky Survey MPS 390029
2005 10 27.245639 23 47 04.765 -00 56 14.67 21.65   645 – Apache Point-Sloan Digital Sky Survey MPS 390029
2005 10 31.204387 23 45 28.402 -01 10 19.84 20.62 V 645 – Apache Point-Sloan Digital Sky Survey MPS 390029
2005 10 31.207859 23 45 28.311 -01 10 20.53 21.53   645 – Apache Point-Sloan Digital Sky Survey MPS 390029
2005 11 25.17752 23 45 15.84 -01 32 20.7 20.9 V G96 – Mt. Lemmon Survey MPS 151780
